SCX2356 KAFW-KSDF

Flight info

Callsign SCX2356
Flight time 1h 31m
Altitude 37000
Route KUSSO2 BSKAT LIT JBR CNG JIINN MBELL5
Aircraft B738/M-SDE2E3FGHIRWXY/LB1

Departure

Time 2026-05-08 03:15
Airport Perot Field/Fort Worth Alliance Airport (KAFW)

Arrival

Time 2026-05-08 04:46
Airport Louisville Muhammad Ali International Airport (KSDF)
Time Latitude Longitude Altitude Speed Heading
2026-05-08 02:51 32.98382 -97.32252 690 ft 0 kts 258°
2026-05-08 03:00 32.98383 -97.32247 690 ft 2 kts 259°
2026-05-08 03:01 32.98386 -97.32224 684 ft 3 kts 262°
2026-05-08 03:01 32.98389 -97.32201 688 ft 3 kts 266°
2026-05-08 03:01 32.98387 -97.32183 688 ft 3 kts 313°
2026-05-08 03:01 32.98374 -97.32173 681 ft 2 kts 349°
2026-05-08 03:02 32.98362 -97.32170 680 ft 3 kts 349°
2026-05-08 03:02 32.98349 -97.32167 668 ft 1 kts 349°
2026-05-08 03:02 32.98348 -97.32167 687 ft 1 kts 349°
2026-05-08 03:04 32.98350 -97.32167 690 ft 1 kts 349°
2026-05-08 03:05 32.98375 -97.32173 685 ft 7 kts 349°
2026-05-08 03:05 32.98452 -97.32189 690 ft 14 kts 351°
2026-05-08 03:05 32.98554 -97.32211 688 ft 15 kts 349°
2026-05-08 03:05 32.98620 -97.32213 686 ft 8 kts 37°
2026-05-08 03:06 32.98630 -97.32176 687 ft 0 kts 83°
2026-05-08 03:08 32.98630 -97.32169 682 ft 3 kts 83°
2026-05-08 03:08 32.98628 -97.32109 683 ft 10 kts 115°
2026-05-08 03:08 32.98564 -97.32078 685 ft 10 kts 165°
2026-05-08 03:08 32.98501 -97.32050 689 ft 10 kts 122°
2026-05-08 03:09 32.98504 -97.31965 690 ft 13 kts 80°
2026-05-08 03:09 32.98528 -97.31821 688 ft 20 kts 80°
2026-05-08 03:09 32.98555 -97.31661 690 ft 18 kts 63°
2026-05-08 03:09 32.98666 -97.31637 685 ft 17 kts 349°
2026-05-08 03:10 32.98779 -97.31660 685 ft 17 kts 351°
2026-05-08 03:10 32.98891 -97.31683 687 ft 16 kts 350°
2026-05-08 03:10 32.98998 -97.31705 687 ft 15 kts 350°
2026-05-08 03:10 32.99100 -97.31726 686 ft 15 kts 350°
2026-05-08 03:11 32.99199 -97.31746 688 ft 14 kts 350°
2026-05-08 03:11 32.99293 -97.31765 685 ft 13 kts 350°
2026-05-08 03:11 32.99391 -97.31785 688 ft 16 kts 350°
2026-05-08 03:11 32.99518 -97.31811 685 ft 21 kts 350°
2026-05-08 03:12 32.99669 -97.31842 688 ft 22 kts 350°
2026-05-08 03:12 32.99817 -97.31872 687 ft 21 kts 350°
2026-05-08 03:12 32.99960 -97.31901 688 ft 21 kts 350°
2026-05-08 03:12 33.00100 -97.31930 684 ft 20 kts 350°
2026-05-08 03:13 33.00235 -97.31958 684 ft 19 kts 350°
2026-05-08 03:13 33.00367 -97.31985 688 ft 19 kts 350°
2026-05-08 03:13 33.00481 -97.32009 688 ft 16 kts 350°
2026-05-08 03:13 33.00541 -97.32058 686 ft 10 kts 275°
2026-05-08 03:14 33.00527 -97.32132 684 ft 9 kts 237°
2026-05-08 03:14 33.00478 -97.32141 685 ft 9 kts 171°
2026-05-08 03:14 33.00304 -97.32106 688 ft 58 kts 170°
2026-05-08 03:14 32.99676 -97.31977 686 ft 126 kts 170°
2026-05-08 03:15 32.98634 -97.31762 837 ft 167 kts 170°
2026-05-08 03:15 32.97511 -97.31533 1793 ft 158 kts 170°
2026-05-08 03:15 32.96418 -97.31320 2533 ft 168 kts 171°
2026-05-08 03:15 32.95202 -97.31112 3061 ft 189 kts 172°
2026-05-08 03:16 32.93785 -97.30852 3364 ft 209 kts 165°
2026-05-08 03:16 32.92440 -97.30253 4096 ft 209 kts 152°
2026-05-08 03:16 32.91289 -97.29167 4628 ft 221 kts 125°
2026-05-08 03:16 32.90834 -97.27334 4916 ft 247 kts 90°
2026-05-08 03:17 32.91007 -97.25173 4970 ft 275 kts 83°
2026-05-08 03:17 32.91276 -97.22947 4993 ft 276 kts 83°
2026-05-08 03:17 32.91558 -97.20681 5026 ft 278 kts 83°
2026-05-08 03:17 32.91830 -97.18389 5567 ft 283 kts 83°
2026-05-08 03:18 32.92094 -97.16037 6414 ft 288 kts 84°
2026-05-08 03:18 32.92350 -97.13647 7214 ft 293 kts 84°
2026-05-08 03:18 32.92601 -97.11214 7992 ft 299 kts 84°
2026-05-08 03:18 32.92849 -97.08738 8767 ft 306 kts 84°
2026-05-08 03:19 32.93099 -97.06193 9564 ft 311 kts 84°
2026-05-08 03:19 32.93349 -97.03615 10280 ft 319 kts 84°
2026-05-08 03:19 32.93609 -97.00900 10599 ft 340 kts 84°
2026-05-08 03:19 32.93879 -96.98058 11175 ft 350 kts 84°
2026-05-08 03:20 32.94149 -96.95201 11898 ft 354 kts 84°
2026-05-08 03:20 32.94426 -96.92264 12683 ft 358 kts 83°
2026-05-08 03:20 32.94704 -96.89297 13406 ft 363 kts 83°
2026-05-08 03:20 32.94986 -96.86281 14102 ft 368 kts 83°
2026-05-08 03:21 32.95271 -96.83226 14728 ft 374 kts 83°
2026-05-08 03:21 32.95559 -96.80124 15353 ft 380 kts 84°
2026-05-08 03:21 32.95850 -96.76979 15987 ft 386 kts 84°
2026-05-08 03:21 32.96145 -96.73778 16611 ft 391 kts 84°
2026-05-08 03:22 32.96443 -96.70533 17211 ft 397 kts 84°
2026-05-08 03:22 32.96745 -96.67240 17817 ft 403 kts 85°
2026-05-08 03:22 32.97046 -96.63950 18401 ft 408 kts 85°
2026-05-08 03:22 32.97354 -96.60569 18943 ft 413 kts 85°
2026-05-08 03:23 32.97665 -96.57153 19505 ft 417 kts 84°
2026-05-08 03:23 32.97978 -96.53706 20063 ft 421 kts 84°
2026-05-08 03:23 32.98292 -96.50228 20626 ft 425 kts 84°
2026-05-08 03:23 32.98609 -96.46713 21161 ft 429 kts 84°
2026-05-08 03:24 32.98929 -96.43163 21688 ft 433 kts 84°
2026-05-08 03:24 32.99250 -96.39585 22199 ft 438 kts 83°
2026-05-08 03:24 32.99578 -96.35962 22712 ft 442 kts 82°
2026-05-08 03:24 33.00169 -96.32362 23208 ft 444 kts 72°
2026-05-08 03:25 33.01227 -96.28902 23711 ft 445 kts 64°
2026-05-08 03:25 33.02434 -96.25542 24102 ft 449 kts 63°
2026-05-08 03:25 33.03698 -96.22111 24460 ft 455 kts 63°
2026-05-08 03:25 33.04974 -96.18638 24825 ft 460 kts 64°
2026-05-08 03:26 33.06251 -96.15113 25204 ft 465 kts 64°
2026-05-08 03:26 33.07521 -96.11560 25574 ft 470 kts 64°
2026-05-08 03:26 33.08801 -96.07945 25941 ft 474 kts 65°
2026-05-08 03:26 33.10082 -96.04311 26293 ft 479 kts 65°
2026-05-08 03:27 33.11378 -96.00624 26631 ft 484 kts 65°
2026-05-08 03:27 33.12684 -95.96906 26978 ft 488 kts 65°
2026-05-08 03:27 33.13983 -95.93206 27314 ft 492 kts 65°
2026-05-08 03:27 33.15308 -95.89430 27644 ft 496 kts 66°
2026-05-08 03:28 33.16648 -95.85608 27974 ft 501 kts 66°
2026-05-08 03:28 33.17997 -95.81756 28320 ft 505 kts 66°
2026-05-08 03:28 33.19355 -95.77868 28649 ft 509 kts 66°
2026-05-08 03:28 33.20718 -95.73956 28972 ft 513 kts 66°
2026-05-08 03:29 33.22093 -95.70002 29285 ft 517 kts 66°
2026-05-08 03:29 33.23471 -95.66035 29589 ft 521 kts 67°
2026-05-08 03:29 33.24869 -95.62004 29889 ft 525 kts 67°
2026-05-08 03:29 33.26271 -95.57959 30165 ft 529 kts 67°
2026-05-08 03:30 33.29079 -95.49841 30711 ft 534 kts 67°
2026-05-08 03:30 33.31918 -95.41612 31331 ft 537 kts 67°
2026-05-08 03:31 33.34769 -95.33332 31861 ft 541 kts 67°
2026-05-08 03:31 33.37635 -95.24984 32371 ft 544 kts 67°
2026-05-08 03:32 33.39071 -95.20790 32644 ft 546 kts 67°
2026-05-08 03:32 33.40490 -95.16643 32988 ft 545 kts 67°
2026-05-08 03:32 33.41923 -95.12450 33386 ft 543 kts 67°
2026-05-08 03:32 33.43349 -95.08272 33765 ft 541 kts 67°
2026-05-08 03:33 33.44769 -95.04105 34086 ft 541 kts 67°
2026-05-08 03:33 33.46189 -94.99935 34334 ft 542 kts 67°
2026-05-08 03:33 33.47613 -94.95745 34554 ft 543 kts 67°
2026-05-08 03:33 33.49033 -94.91563 34799 ft 543 kts 67°
2026-05-08 03:34 33.50456 -94.87367 35057 ft 543 kts 67°
2026-05-08 03:34 33.51877 -94.83170 35298 ft 543 kts 67°
2026-05-08 03:34 33.53277 -94.79030 35522 ft 544 kts 66°
2026-05-08 03:34 33.54714 -94.74773 35754 ft 544 kts 66°
2026-05-08 03:35 33.56114 -94.70622 35986 ft 544 kts 66°
2026-05-08 03:35 33.57533 -94.66408 36212 ft 545 kts 66°
2026-05-08 03:35 33.58950 -94.62197 36419 ft 545 kts 66°
2026-05-08 03:35 33.60367 -94.57979 36630 ft 546 kts 66°
2026-05-08 03:36 33.61786 -94.53748 36840 ft 546 kts 66°
2026-05-08 03:36 33.63259 -94.49351 37045 ft 546 kts 66°
2026-05-08 03:36 33.64679 -94.45106 37047 ft 550 kts 66°
2026-05-08 03:37 33.67526 -94.36577 37061 ft 550 kts 66°
2026-05-08 03:37 33.70352 -94.28088 37043 ft 544 kts 66°
2026-05-08 03:38 33.73615 -94.19946 37062 ft 538 kts 56°
2026-05-08 03:38 33.77396 -94.12209 37049 ft 537 kts 54°
2026-05-08 03:39 33.81161 -94.04532 37062 ft 537 kts 55°
2026-05-08 03:39 33.84898 -93.96754 37061 ft 538 kts 56°
2026-05-08 03:40 33.88619 -93.88926 37057 ft 540 kts 56°
2026-05-08 03:40 33.92349 -93.81063 37060 ft 542 kts 56°
2026-05-08 03:41 33.96069 -93.73215 37064 ft 544 kts 56°
2026-05-08 03:41 33.99821 -93.65284 37065 ft 545 kts 56°
2026-05-08 03:42 34.03577 -93.57328 37069 ft 547 kts 56°
2026-05-08 03:42 34.07590 -93.49558 37056 ft 545 kts 51°
2026-05-08 03:43 34.11858 -93.42016 37066 ft 544 kts 50°
2026-05-08 03:43 34.16131 -93.34472 37079 ft 544 kts 50°
2026-05-08 03:44 34.20325 -93.26929 37078 ft 544 kts 51°
2026-05-08 03:44 34.24498 -93.19348 37077 ft 544 kts 51°
2026-05-08 03:45 34.28670 -93.11748 37078 ft 543 kts 51°
2026-05-08 03:45 34.32846 -93.04135 37075 ft 542 kts 51°
2026-05-08 03:46 34.37012 -92.96529 37079 ft 542 kts 51°
2026-05-08 03:46 34.41141 -92.88975 37085 ft 541 kts 51°
2026-05-08 03:47 34.45291 -92.81367 37082 ft 541 kts 51°
2026-05-08 03:47 34.49437 -92.73748 37075 ft 542 kts 51°
2026-05-08 03:48 34.53581 -92.66117 37083 ft 542 kts 51°
2026-05-08 03:48 34.57726 -92.58469 37092 ft 543 kts 51°
2026-05-08 03:49 34.61872 -92.50800 37088 ft 544 kts 51°
2026-05-08 03:49 34.66020 -92.43112 37088 ft 545 kts 51°
2026-05-08 03:50 34.70143 -92.35453 37088 ft 546 kts 51°
2026-05-08 03:50 34.74300 -92.27714 37091 ft 547 kts 51°
2026-05-08 03:51 34.78457 -92.19958 37087 ft 548 kts 51°
2026-05-08 03:51 34.82802 -92.12388 37072 ft 541 kts 43°
2026-05-08 03:52 34.87658 -92.05414 37081 ft 540 kts 41°
2026-05-08 03:52 34.92576 -91.98496 37083 ft 541 kts 41°
2026-05-08 03:53 34.97436 -91.91559 37079 ft 542 kts 41°
2026-05-08 03:53 35.02304 -91.84524 37085 ft 543 kts 41°
2026-05-08 03:54 35.07164 -91.77468 37081 ft 543 kts 41°
2026-05-08 03:54 35.12024 -91.70403 37083 ft 543 kts 41°
2026-05-08 03:55 35.16885 -91.63327 37087 ft 543 kts 41°
2026-05-08 03:55 35.21745 -91.56243 37088 ft 544 kts 41°
2026-05-08 03:56 35.26566 -91.49200 37089 ft 544 kts 41°
2026-05-08 03:56 35.31422 -91.42090 37095 ft 544 kts 41°
2026-05-08 03:57 35.36272 -91.34975 37102 ft 544 kts 41°
2026-05-08 03:57 35.41124 -91.27842 37100 ft 545 kts 41°
2026-05-08 03:58 35.45971 -91.20702 37113 ft 545 kts 41°
2026-05-08 03:58 35.50814 -91.13552 37109 ft 545 kts 41°
2026-05-08 03:59 35.55622 -91.06441 37111 ft 545 kts 41°
2026-05-08 03:59 35.60465 -90.99261 37105 ft 546 kts 41°
2026-05-08 04:00 35.65306 -90.92070 37100 ft 546 kts 41°
2026-05-08 04:00 35.70146 -90.84864 37084 ft 546 kts 41°
2026-05-08 04:01 35.74949 -90.77700 37091 ft 547 kts 41°
2026-05-08 04:01 35.79787 -90.70467 37092 ft 547 kts 41°
2026-05-08 04:02 35.84624 -90.63220 37097 ft 548 kts 41°
2026-05-08 04:02 35.89462 -90.55956 37097 ft 548 kts 41°
2026-05-08 04:03 35.94291 -90.48675 37092 ft 548 kts 41°
2026-05-08 04:03 36.01521 -90.37734 37085 ft 549 kts 41°
2026-05-08 04:04 36.06308 -90.30472 37084 ft 549 kts 41°
2026-05-08 04:04 36.11125 -90.23149 37080 ft 549 kts 41°
2026-05-08 04:05 36.15934 -90.15822 37090 ft 548 kts 41°
2026-05-08 04:05 36.20677 -90.08581 37091 ft 548 kts 41°
2026-05-08 04:06 36.25468 -90.01253 37087 ft 547 kts 41°
2026-05-08 04:06 36.30251 -89.93920 37091 ft 547 kts 41°
2026-05-08 04:07 36.35032 -89.86575 37090 ft 547 kts 41°
2026-05-08 04:07 36.39805 -89.79225 37068 ft 547 kts 41°
2026-05-08 04:08 36.44542 -89.71916 37088 ft 546 kts 41°
2026-05-08 04:08 36.49295 -89.64564 37079 ft 546 kts 41°
2026-05-08 04:09 36.54053 -89.57190 37076 ft 547 kts 41°
2026-05-08 04:09 36.58809 -89.49804 37081 ft 547 kts 41°
2026-05-08 04:10 36.63557 -89.42413 37081 ft 547 kts 41°
2026-05-08 04:10 36.68270 -89.35060 37078 ft 547 kts 41°
2026-05-08 04:11 36.73015 -89.27641 37080 ft 547 kts 41°
2026-05-08 04:11 36.77754 -89.20215 37079 ft 547 kts 41°
2026-05-08 04:12 36.82492 -89.12774 37081 ft 547 kts 41°
2026-05-08 04:12 36.87224 -89.05325 37084 ft 548 kts 41°
2026-05-08 04:13 36.91921 -88.97915 37093 ft 548 kts 41°
2026-05-08 04:13 36.96645 -88.90445 37083 ft 548 kts 41°
2026-05-08 04:14 37.01460 -88.83111 37081 ft 538 kts 34°
2026-05-08 04:14 37.04181 -88.80002 37095 ft 524 kts 27°
2026-05-08 04:14 37.06983 -88.77106 37093 ft 522 kts 26°
2026-05-08 04:15 37.12649 -88.71384 36768 ft 526 kts 26°
2026-05-08 04:15 37.15449 -88.68530 36364 ft 524 kts 26°
2026-05-08 04:15 37.18255 -88.65625 35986 ft 521 kts 27°
2026-05-08 04:16 37.21027 -88.62728 35598 ft 517 kts 27°
2026-05-08 04:16 37.23781 -88.59838 35202 ft 514 kts 27°
2026-05-08 04:16 37.26518 -88.56961 34817 ft 511 kts 27°
2026-05-08 04:16 37.29238 -88.54102 34400 ft 509 kts 27°
2026-05-08 04:17 37.31947 -88.51255 34016 ft 507 kts 27°
2026-05-08 04:17 37.34644 -88.48421 33562 ft 504 kts 27°
2026-05-08 04:17 37.37286 -88.45642 33184 ft 500 kts 27°
2026-05-08 04:17 37.39947 -88.42838 32793 ft 497 kts 28°
2026-05-08 04:18 37.42586 -88.40057 32418 ft 493 kts 28°
2026-05-08 04:18 37.45207 -88.37291 32042 ft 490 kts 28°
2026-05-08 04:18 37.47804 -88.34549 31676 ft 486 kts 28°
2026-05-08 04:18 37.50383 -88.31824 31306 ft 483 kts 29°
2026-05-08 04:19 37.52948 -88.29111 30944 ft 479 kts 29°
2026-05-08 04:19 37.55485 -88.26425 30583 ft 476 kts 29°
2026-05-08 04:19 37.58004 -88.23755 30218 ft 469 kts 30°
2026-05-08 04:19 37.60441 -88.21167 29800 ft 461 kts 30°
2026-05-08 04:20 37.62877 -88.18578 29394 ft 453 kts 29°
2026-05-08 04:20 37.65113 -88.15777 28997 ft 461 kts 45°
2026-05-08 04:20 37.66678 -88.12224 28702 ft 465 kts 63°
2026-05-08 04:20 37.67835 -88.08415 28369 ft 464 kts 66°
2026-05-08 04:21 37.68912 -88.04591 28006 ft 462 kts 66°
2026-05-08 04:21 37.69970 -88.00776 27661 ft 460 kts 66°
2026-05-08 04:21 37.71035 -87.96978 27327 ft 459 kts 66°
2026-05-08 04:21 37.72120 -87.93182 26995 ft 459 kts 66°
2026-05-08 04:22 37.73202 -87.89445 26659 ft 458 kts 65°
2026-05-08 04:22 37.74300 -87.85680 26322 ft 456 kts 65°
2026-05-08 04:22 37.75396 -87.81935 25986 ft 454 kts 65°
2026-05-08 04:22 37.76486 -87.78205 25654 ft 452 kts 65°
2026-05-08 04:23 37.77570 -87.74492 25321 ft 449 kts 65°
2026-05-08 04:23 37.78647 -87.70793 24994 ft 447 kts 65°
2026-05-08 04:23 37.79719 -87.67108 24668 ft 445 kts 65°
2026-05-08 04:23 37.80422 -87.64686 24446 ft 443 kts 65°
2026-05-08 04:24 37.81480 -87.61036 24114 ft 440 kts 65°
2026-05-08 04:24 37.82867 -87.56244 23685 ft 437 kts 65°
2026-05-08 04:24 37.83907 -87.52643 23304 ft 434 kts 67°
2026-05-08 04:24 37.84545 -87.48912 22912 ft 435 kts 88°
2026-05-08 04:25 37.84332 -87.45132 22654 ft 428 kts 100°
2026-05-08 04:25 37.84039 -87.42679 22436 ft 425 kts 101°
2026-05-08 04:25 37.83556 -87.39009 22111 ft 421 kts 102°
2026-05-08 04:25 37.83065 -87.35370 21792 ft 418 kts 102°
2026-05-08 04:26 37.82586 -87.31769 21487 ft 414 kts 102°
2026-05-08 04:26 37.82121 -87.28186 21180 ft 411 kts 102°
2026-05-08 04:26 37.81669 -87.24632 20882 ft 408 kts 101°
2026-05-08 04:26 37.81086 -87.19973 20483 ft 403 kts 101°
2026-05-08 04:27 37.80791 -87.17608 20290 ft 401 kts 101°
2026-05-08 04:27 37.80358 -87.14132 19997 ft 399 kts 101°
2026-05-08 04:27 37.79934 -87.10728 19708 ft 396 kts 101°
2026-05-08 04:27 37.79506 -87.07302 19421 ft 393 kts 101°
2026-05-08 04:28 37.79081 -87.03900 19132 ft 391 kts 101°
2026-05-08 04:28 37.78656 -87.00516 18850 ft 389 kts 101°
2026-05-08 04:28 37.78232 -86.97150 18557 ft 387 kts 101°
2026-05-08 04:28 37.77809 -86.93803 18246 ft 385 kts 101°
2026-05-08 04:29 37.77388 -86.90472 17936 ft 383 kts 101°
2026-05-08 04:29 37.76968 -86.87160 17633 ft 380 kts 101°
2026-05-08 04:29 37.76550 -86.83877 17340 ft 377 kts 101°
2026-05-08 04:29 37.76141 -86.80660 17061 ft 374 kts 101°
2026-05-08 04:30 37.75727 -86.77420 16732 ft 373 kts 101°
2026-05-08 04:30 37.75314 -86.74192 16450 ft 371 kts 101°
2026-05-08 04:30 37.74903 -86.70987 16162 ft 369 kts 101°
2026-05-08 04:30 37.74493 -86.67796 15879 ft 367 kts 101°
2026-05-08 04:31 37.74085 -86.64628 15608 ft 365 kts 101°
2026-05-08 04:31 37.73679 -86.61474 15340 ft 362 kts 101°
2026-05-08 04:31 37.73273 -86.58341 15072 ft 361 kts 101°
2026-05-08 04:31 37.72876 -86.55225 14813 ft 359 kts 98°
2026-05-08 04:32 37.72922 -86.52132 14526 ft 356 kts 77°
2026-05-08 04:32 37.73441 -86.49096 14300 ft 353 kts 74°
2026-05-08 04:32 37.73998 -86.46082 14035 ft 352 kts 74°
2026-05-08 04:32 37.74540 -86.43075 13757 ft 350 kts 75°
2026-05-08 04:33 37.75058 -86.40077 13473 ft 349 kts 75°
2026-05-08 04:33 37.75565 -86.37083 13195 ft 347 kts 76°
2026-05-08 04:33 37.75993 -86.34099 12901 ft 347 kts 85°
2026-05-08 04:33 37.75855 -86.31047 12497 ft 348 kts 97°
2026-05-08 04:34 37.75570 -86.28057 12096 ft 349 kts 97°
2026-05-08 04:34 37.75299 -86.25021 11692 ft 350 kts 96°
2026-05-08 04:34 37.75049 -86.21966 11280 ft 350 kts 95°
2026-05-08 04:34 37.74811 -86.18913 10866 ft 348 kts 95°
2026-05-08 04:35 37.74601 -86.15900 10493 ft 339 kts 94°
2026-05-08 04:35 37.74407 -86.13013 10386 ft 321 kts 94°
2026-05-08 04:35 37.74220 -86.10261 10215 ft 310 kts 94°
2026-05-08 04:35 37.74034 -86.07564 9975 ft 307 kts 94°
2026-05-08 04:36 37.73849 -86.04895 9717 ft 304 kts 94°
2026-05-08 04:36 37.73657 -86.02281 9438 ft 301 kts 94°
2026-05-08 04:36 37.73459 -85.99658 9168 ft 299 kts 95°
2026-05-08 04:36 37.73263 -85.97067 8825 ft 295 kts 95°
2026-05-08 04:37 37.73069 -85.94497 8438 ft 293 kts 95°
2026-05-08 04:37 37.73059 -85.91959 8064 ft 287 kts 76°
2026-05-08 04:37 37.73851 -85.89705 7710 ft 278 kts 50°
2026-05-08 04:37 37.75199 -85.88030 7362 ft 270 kts 35°
2026-05-08 04:38 37.76688 -85.86584 7053 ft 270 kts 34°
2026-05-08 04:38 37.78183 -85.85167 6803 ft 267 kts 34°
2026-05-08 04:38 37.79641 -85.83785 6573 ft 264 kts 34°
2026-05-08 04:38 37.81102 -85.82392 6342 ft 262 kts 34°
2026-05-08 04:39 37.82545 -85.81009 6075 ft 259 kts 35°
2026-05-08 04:39 37.83977 -85.79632 5864 ft 257 kts 35°
2026-05-08 04:39 37.85393 -85.78266 5645 ft 255 kts 35°
2026-05-08 04:39 37.86794 -85.76911 5432 ft 253 kts 35°
2026-05-08 04:40 37.88192 -85.75559 5222 ft 252 kts 36°
2026-05-08 04:40 37.89573 -85.74220 5004 ft 249 kts 36°
2026-05-08 04:40 37.90931 -85.72904 4826 ft 241 kts 36°
2026-05-08 04:40 37.92216 -85.71656 4613 ft 232 kts 36°
2026-05-08 04:41 37.93474 -85.70435 4405 ft 223 kts 36°
2026-05-08 04:41 37.94707 -85.69239 4220 ft 223 kts 36°
2026-05-08 04:41 37.96005 -85.68204 4042 ft 220 kts 14°
2026-05-08 04:41 37.97492 -85.68199 4023 ft 213 kts 351°
2026-05-08 04:42 37.98952 -85.68459 3916 ft 210 kts 349°
2026-05-08 04:42 38.00363 -85.68820 3659 ft 204 kts 346°
2026-05-08 04:42 38.01715 -85.69250 3399 ft 198 kts 345°
2026-05-08 04:42 38.03032 -85.69688 3130 ft 193 kts 345°
2026-05-08 04:43 38.04311 -85.70113 2863 ft 185 kts 345°
2026-05-08 04:43 38.05497 -85.70506 2633 ft 172 kts 345°
2026-05-08 04:43 38.06633 -85.70883 2397 ft 163 kts 345°
2026-05-08 04:43 38.07679 -85.71229 2194 ft 149 kts 345°
2026-05-08 04:44 38.08655 -85.71553 1994 ft 143 kts 344°
2026-05-08 04:44 38.09615 -85.71870 1788 ft 142 kts 345°
2026-05-08 04:44 38.10573 -85.72188 1556 ft 142 kts 343°
2026-05-08 04:44 38.11520 -85.72520 1374 ft 142 kts 345°
2026-05-08 04:45 38.12493 -85.72830 1162 ft 146 kts 345°
2026-05-08 04:45 38.13483 -85.73158 970 ft 148 kts 345°
2026-05-08 04:45 38.14467 -85.73482 789 ft 149 kts 344°
2026-05-08 04:45 38.15470 -85.73812 596 ft 149 kts 343°
2026-05-08 04:46 38.16456 -85.74131 484 ft 136 kts 345°
2026-05-08 04:46 38.17163 -85.74369 479 ft 74 kts 346°
2026-05-08 04:46 38.17463 -85.74460 484 ft 24 kts 351°
2026-05-08 04:46 38.17618 -85.74439 486 ft 18 kts 28°
2026-05-08 04:47 38.17662 -85.74316 481 ft 15 kts 63°
2026-05-08 04:47 38.17740 -85.74273 483 ft 12 kts 47°
2026-05-08 04:47 38.17738 -85.74183 482 ft 11 kts 109°
2026-05-08 04:47 38.17713 -85.74098 484 ft 10 kts 112°
2026-05-08 04:48 38.17683 -85.74017 484 ft 10 kts 129°
2026-05-08 04:48 38.17633 -85.73996 483 ft 7 kts 172°
2026-05-08 04:48 38.17596 -85.73979 482 ft 3 kts 156°
2026-05-08 04:48 38.17587 -85.73974 485 ft 0 kts 156°
2026-05-08 04:49 38.17585 -85.73972 481 ft 0 kts 156°